GFSNIL_sfc_thetae_204.txt.gz
Theta_e
311 310 310 309 309 309 308 308 308 308 307 307 306 304 303 303 303 303 302 301 301 301
311 311 310 310 310 310 310 309 308 308 306 305 304 304 303 302 302 302 302 302 302 301
311 311 311 311 309 309 310 309 308 307 306 305 304 303 303 302 302 302 302 301 300 298
311 311 310 310 309 309 309 308 308 307 306 304 303 303 302 302 302 300 299 298 298 297
311 309 309 308 308 308 307 307 307 307 306 305 305 304 302 300 299 297 296 296 295 295
309 308 307 308 307 307 306 306 307 307 306 305 303 301 299 297 295 295 294 294 292 291
308 308 308 308 308 308 308 307 306 305 303 301 299 296 295 294 292 291 291 291 290 290
308 308 309 307 307 307 305 304 301 298 296 295 295 294 293 292 290 289 289 289 289 289
301 300 300 300 299 299 297 296 295 294 293 292 293 297 298 293 289 289 288 287 287 287
301 300 300 299 298 296 295 293 293 292 292 291 290 298 300 297 289 288 287 287 288 288
297 296 295 294 294 292 291 291 291 289 289 289 290 297 299 299 289 289 289 288 287 287
295 293 293 292 291 289 289 289 289 289 289 289 290 296 298 296 291 289 288 288 288 287
295 294 293 292 291 290 290 290 290 290 291 293 290 295 297 293 289 288 288 287 286 290
293 292 292 292 291 291 291 290 290 288 288 288 289 292 294 294 290 288 287 285 285 285

GFSNIL_sfc_thetae_207.txt.gz
Theta_e
310 309 309 309 308 308 308 308 309 309 309 310 309 308 307 306 306 305 304 304 305 304
310 310 309 310 310 310 309 309 309 309 309 309 309 308 307 306 305 305 304 305 305 303
311 311 311 310 309 310 310 310 309 308 308 306 305 305 304 303 303 303 304 304 302 301
311 311 311 310 310 310 310 310 309 308 307 305 304 303 303 303 303 302 301 301 300 300
311 311 310 310 310 310 309 310 309 308 307 305 304 303 303 302 302 301 299 299 300 300
311 309 309 309 309 308 308 308 307 307 305 305 305 304 303 303 301 299 299 300 299 298
309 309 309 309 308 307 307 306 306 306 306 305 304 303 301 299 298 298 297 297 297 295
309 308 308 307 307 308 307 307 306 304 303 302 301 300 299 298 297 295 294 293 293 294
305 306 305 305 304 304 303 303 302 300 299 297 296 298 299 296 294 293 292 292 291 292
302 301 301 301 301 301 300 298 298 296 295 295 294 299 300 297 293 292 292 291 291 291
300 299 299 298 298 296 296 296 295 293 293 293 293 299 300 296 292 292 291 291 291 290
298 297 296 296 294 293 293 292 292 292 292 292 293 298 299 295 292 291 290 290 290 289
297 296 295 295 294 293 293 292 292 291 292 294 293 297 299 295 292 290 290 289 288 291
294 294 294 293 293 292 292 292 291 290 291 290 292 295 296 294 292 291 289 288 287 289

GFSNIL_sfc_thetae_213.txt.gz
Theta_e
312 311 309 308 308 308 310 310 311 310 310 310 310 310 311 311 310 310 310 310 309 307
310 310 310 310 310 308 310 310 309 309 309 310 310 310 310 310 309 309 310 310 309 308
311 310 310 311 310 310 311 310 310 310 309 310 310 311 310 310 310 308 309 309 308 308
310 310 310 309 310 311 311 311 310 310 310 309 309 309 308 309 308 307 305 306 304 302
311 310 310 309 309 311 309 310 311 310 308 307 305 305 304 304 303 303 301 301 301 301
310 310 310 310 310 310 309 309 309 309 308 306 305 304 303 303 302 301 301 301 300 300
310 311 310 310 310 309 310 309 308 308 308 306 305 304 303 303 302 302 302 301 301 301
310 310 309 309 309 309 309 309 308 307 306 305 305 304 303 302 302 301 300 301 301 302
308 308 308 308 307 306 306 306 306 305 305 304 304 304 304 303 302 301 300 299 299 298
306 305 305 305 305 305 304 304 304 304 303 302 301 303 304 302 300 298 297 296 296 295
307 306 306 307 305 303 302 301 300 299 299 298 297 301 301 299 296 296 296 296 296 295
306 305 305 304 303 302 300 298 296 296 295 295 296 299 299 296 294 294 294 294 295 294
305 304 303 301 300 300 298 296 295 294 295 296 296 299 298 295 294 292 292 292 291 294
302 301 300 299 299 298 296 295 294 292 294 296 297 297 297 297 295 294 292 292 291 291

GFSNIL_sfc_thetae_219.txt.gz
Theta_e
309 306 306 306 306 306 306 305 307 306 306 307 308 309 308 308 306 304 304 303 302 302
309 307 306 307 307 307 307 307 306 306 305 306 306 307 306 306 305 304 304 303 302 302
309 309 307 307 306 307 307 307 306 306 306 306 306 306 305 304 305 304 304 304 302 302
309 309 308 308 307 307 307 307 306 306 306 305 305 306 305 304 304 303 303 303 302 301
310 309 307 308 308 308 306 306 306 306 306 306 305 306 305 304 304 302 302 301 300 299
309 309 307 308 308 307 307 307 306 306 305 304 304 304 303 302 302 302 301 301 300 299
309 309 309 309 308 308 307 306 306 305 305 304 303 303 302 302 301 300 300 300 301 301
309 309 309 309 308 308 307 307 307 306 306 305 304 304 302 301 301 300 300 301 302 302
308 308 308 307 307 307 307 307 307 307 306 305 305 304 304 304 302 302 302 301 301 302
306 305 305 306 305 305 305 305 305 305 304 304 304 304 304 304 303 302 301 301 301 300
305 305 305 304 303 303 303 302 302 302 302 301 301 304 304 303 301 300 300 300 299 297
301 302 301 299 299 298 298 297 298 298 298 298 299 301 300 299 297 297 296 297 296 295
299 297 297 297 296 295 295 294 295 295 297 299 298 299 298 296 294 292 291 292 294 295
295 296 296 295 295 294 293 294 294 294 295 295 296 297 298 296 292 291 290 290 290 292

GFSNIL_sfc_thetae_222.txt.gz
Theta_e
307 306 306 306 306 305 305 306 307 309 309 309 310 309 308 307 306 306 305 303 301 301
307 306 305 306 307 306 307 307 306 307 307 307 308 308 308 307 305 306 305 304 302 301
307 307 306 306 306 306 307 307 306 305 305 306 307 307 307 306 305 304 303 303 302 301
308 307 307 306 306 306 307 307 306 306 305 305 305 305 304 304 304 303 303 302 301 301
309 308 306 306 307 307 306 307 306 306 305 305 305 304 304 303 303 302 302 301 300 299
309 308 307 307 307 307 306 306 306 306 305 303 304 304 303 303 303 302 302 301 300 299
308 308 307 307 307 306 306 305 305 306 305 304 303 303 303 302 301 301 301 300 300 299
309 309 308 307 307 307 306 306 305 304 303 303 303 303 302 302 301 300 300 300 300 300
308 308 307 307 307 306 306 305 305 304 304 303 304 303 303 302 301 301 300 300 301 302
306 305 305 306 306 305 306 306 305 305 305 304 305 304 304 303 302 301 301 301 301 301
305 304 303 303 302 302 303 303 303 303 302 302 303 304 304 303 302 301 301 301 301 300
302 300 300 299 298 299 299 298 298 299 299 299 300 302 302 300 299 297 297 297 297 297
298 297 295 296 295 295 296 296 297 297 298 298 297 299 299 297 295 293 293 294 295 296
295 296 295 294 294 295 295 295 294 293 294 295 296 296 297 296 293 291 290 291 291 293

GFSNIL_sfc_thetae_225.txt.gz
Theta_e
308 307 308 307 307 307 309 311 312 313 313 312 310 309 309 308 307 307 305 302 301 301
308 307 307 307 307 306 307 309 310 311 310 310 310 309 308 307 306 306 305 303 302 301
307 307 306 307 306 306 307 307 307 308 308 309 309 308 307 306 306 305 304 304 302 301
307 307 306 306 306 306 306 306 306 306 306 306 307 307 307 306 305 304 302 302 302 300
308 307 306 305 306 306 305 306 306 305 305 305 305 305 306 304 304 303 301 300 300 299
308 307 306 306 306 306 305 305 305 305 304 304 304 303 303 304 303 302 302 301 300 299
308 307 307 307 306 306 306 305 305 305 305 303 303 303 302 301 301 300 300 300 300 299
308 308 307 307 306 306 305 305 305 305 304 303 303 303 302 301 301 300 300 300 300 300
307 307 307 306 306 305 305 304 304 304 304 302 303 303 303 302 301 300 300 299 299 300
305 304 305 306 306 305 304 304 303 303 303 303 303 303 303 303 302 301 300 300 300 301
303 302 302 302 302 302 304 304 303 303 303 303 303 303 303 303 302 301 301 301 301 301
300 299 299 297 297 299 299 299 298 299 299 300 301 302 303 302 300 299 298 299 300 300
297 295 295 295 295 297 297 296 296 296 297 298 297 300 299 298 297 295 294 295 296 298
293 293 294 295 296 296 295 294 294 294 294 295 295 296 298 297 295 294 293 292 292 295

GFSNIL_sfc_thetae_228.txt.gz
Theta_e
311 309 309 309 309 308 309 310 313 314 313 315 313 313 313 312 311 310 309 306 305 304
310 308 307 308 309 308 309 310 311 314 313 312 312 311 310 310 310 310 307 305 306 304
308 308 307 307 306 306 307 309 311 312 312 311 311 310 310 309 308 307 307 306 304 304
308 307 307 306 306 306 306 307 308 309 311 310 309 309 308 307 306 305 305 305 303 302
309 307 306 306 306 306 305 306 306 307 306 307 308 307 307 306 306 305 304 304 302 300
309 307 306 305 306 306 305 305 305 305 305 304 305 306 306 305 304 304 303 302 301 299
309 308 306 306 306 305 305 304 304 304 304 303 303 303 303 303 303 302 301 301 301 300
308 308 307 306 306 306 304 304 304 303 303 304 303 303 302 301 301 301 300 300 300 300
306 307 306 305 305 305 305 304 304 303 303 303 304 303 303 302 300 300 299 298 299 299
303 303 304 305 304 304 303 303 303 303 302 302 303 304 304 302 301 300 300 299 299 299
301 300 300 301 302 304 303 303 302 302 302 302 302 303 303 302 301 301 301 301 301 300
298 297 297 297 297 299 300 299 299 300 301 301 301 302 302 302 301 300 300 300 301 301
295 295 295 296 296 296 296 296 296 295 297 298 299 302 301 300 298 296 295 296 297 300
292 294 295 295 295 295 294 294 293 293 294 295 296 298 299 298 296 295 293 293 295 298

GFSNIL_sfc_thetae_234.txt.gz
Theta_e
317 315 313 314 315 314 312 312 313 314 316 316 316 318 319 320 321 322 318 318 318 316
317 315 313 314 316 313 312 312 313 313 313 315 316 316 317 318 318 319 318 317 316 315
316 316 314 314 312 311 310 310 311 311 311 313 314 314 316 316 317 315 317 316 315 313
316 316 315 313 311 310 309 309 309 309 309 309 311 314 313 314 314 314 314 314 313 313
315 314 313 310 310 308 307 307 308 307 307 307 308 310 311 312 313 312 312 312 311 310
313 312 311 310 309 307 307 306 306 305 305 304 306 308 311 311 313 311 312 312 310 309
309 310 311 310 308 307 306 306 305 305 305 304 303 304 310 310 310 310 311 310 309 308
305 308 308 309 308 306 305 305 305 304 304 305 304 304 307 308 307 306 305 307 306 306
303 304 306 307 305 304 304 304 303 303 303 303 303 303 304 305 305 304 302 302 303 302
300 301 302 305 304 303 303 304 303 302 303 303 303 303 303 303 302 302 301 300 300 300
299 298 300 300 303 303 303 303 302 301 302 302 302 302 302 302 301 301 301 301 301 300
297 297 297 296 298 300 298 298 298 301 302 302 302 302 302 302 302 301 301 301 302 301
296 296 295 295 295 296 296 295 296 296 298 301 301 302 302 302 301 299 299 300 301 302
295 294 295 294 295 294 294 294 294 294 295 297 299 300 301 300 298 297 297 297 298 300

GFSNIL_sfc_thetae_240.txt.gz
Theta_e
313 313 312 310 311 311 312 314 314 313 314 312 314 314 313 311 311 312 313 313 316 316
312 313 311 311 312 313 312 313 312 312 311 311 313 313 313 311 311 311 312 313 314 315
310 311 312 314 314 312 312 313 313 312 313 312 311 312 313 312 313 312 312 313 313 314
307 311 311 310 313 312 313 313 313 312 311 309 309 310 309 310 310 311 312 312 311 312
303 309 308 309 311 312 312 312 311 311 308 307 307 307 307 306 306 308 309 310 310 310
299 306 307 307 309 312 312 311 310 308 306 306 305 305 305 306 306 306 307 309 309 310
297 303 304 305 307 309 311 310 308 306 305 304 304 304 304 304 304 306 306 308 310 310
298 302 302 303 305 307 308 307 306 305 304 304 304 304 304 303 302 302 303 306 308 310
297 299 300 301 302 306 305 305 304 303 303 302 302 303 303 303 301 302 302 304 308 310
290 295 298 299 300 304 303 303 302 302 302 301 302 303 303 302 302 302 302 305 307 306
287 289 296 297 298 302 303 302 301 301 300 301 301 302 302 302 302 302 304 305 305 304
286 287 294 295 296 298 298 298 298 301 300 300 301 301 301 301 300 300 300 301 302 302
286 287 294 295 295 296 296 295 296 297 298 299 300 301 301 300 300 299 299 300 300 301
286 288 294 294 294 294 293 293 294 294 295 296 298 299 300 299 297 297 298 298 298 300

GFSNIL_sfc_thetae_243.txt.gz
Theta_e
311 312 313 312 309 309 309 310 310 313 313 313 313 313 311 312 311 309 309 309 311 314
302 308 310 312 309 309 310 312 312 311 310 313 313 313 312 311 309 309 309 309 310 311
295 301 307 310 310 312 314 313 312 310 310 312 313 313 312 312 313 311 311 311 309 310
292 296 301 308 310 309 310 311 311 311 311 312 312 312 311 311 311 310 311 311 311 310
291 294 297 306 307 308 308 309 311 311 311 311 310 309 308 308 308 307 307 308 309 310
290 292 295 303 304 306 306 307 311 310 310 309 308 307 307 306 306 306 306 306 305 306
289 291 295 301 302 303 305 307 309 310 309 308 307 306 305 305 304 304 305 305 306 306
288 290 291 297 301 301 303 306 308 307 306 305 305 304 303 303 303 303 302 302 303 305
287 288 290 292 298 299 301 305 306 305 304 303 303 303 304 304 302 302 302 301 300 302
286 286 288 290 294 297 299 304 304 303 302 301 302 303 303 303 302 300 300 300 301 301
283 284 287 289 292 296 298 303 302 301 301 301 301 302 302 302 301 301 302 303 302 303
282 283 285 287 292 296 297 298 300 301 300 300 300 301 301 301 300 300 300 302 304 305
282 283 285 287 292 295 295 296 297 297 298 299 299 301 300 300 299 298 299 300 300 301
282 283 285 288 294 294 293 293 293 294 295 297 298 299 299 299 297 297 297 297 298 300

GFSNIL_sfc_thetae_249.txt.gz
Theta_e
288 288 289 289 290 292 298 311 312 312 314 314 313 311 311 309 307 305 305 304 304 307
286 286 287 288 289 292 297 308 311 311 311 312 313 313 312 311 310 310 308 305 305 305
285 285 286 287 287 290 294 298 310 311 312 312 312 312 312 311 311 310 310 309 306 305
283 284 285 286 287 289 292 294 302 309 309 309 310 312 311 311 311 310 310 310 308 308
281 283 283 285 286 287 289 292 298 305 306 306 305 308 310 310 311 310 309 309 309 309
279 280 281 283 285 286 287 290 293 302 303 304 306 307 310 310 310 310 310 309 309 310
279 280 281 283 284 285 287 287 291 298 300 303 306 307 308 310 310 310 310 310 309 309
279 280 281 282 283 285 286 286 289 293 297 300 303 306 307 308 308 308 308 308 308 307
278 279 280 282 283 283 284 285 288 292 296 298 301 304 305 307 306 306 305 303 304 305
278 278 280 281 282 282 283 285 287 291 295 296 302 304 305 304 305 303 302 302 302 302
277 278 280 280 281 281 283 284 287 290 295 296 302 303 303 303 302 301 302 302 301 300
277 278 279 279 280 281 282 284 286 290 295 296 301 301 302 302 301 300 300 300 300 301
278 279 279 280 280 281 282 284 287 290 295 297 300 301 301 301 300 298 298 299 300 300
279 279 280 280 281 282 283 285 287 293 294 297 300 300 301 301 298 297 297 297 297 298

GFSNIL_sfc_thetae_252.txt.gz
Theta_e
283 284 285 287 287 288 289 292 295 297 297 311 314 313 312 311 309 306 305 303 303 305
282 283 283 285 286 287 289 291 293 295 296 296 313 313 312 311 310 309 306 305 304 304
279 281 283 284 284 285 287 288 289 292 294 293 310 312 312 311 311 310 309 309 306 304
278 280 281 282 283 284 286 287 287 288 291 293 302 311 311 311 311 310 310 309 308 307
278 278 279 280 281 284 284 286 286 287 288 292 294 307 308 310 310 309 309 309 309 308
277 277 277 279 280 282 283 284 286 287 286 290 293 304 306 307 307 309 310 310 309 309
276 277 277 278 280 281 282 283 285 286 287 288 292 301 304 306 306 307 307 310 310 309
276 277 277 278 279 280 281 283 284 285 286 287 292 299 301 305 306 307 307 309 309 310
276 276 277 277 278 280 281 282 283 284 285 287 292 298 301 302 304 306 306 306 307 308
276 276 276 277 278 279 280 281 282 283 284 286 291 296 299 301 303 304 305 305 305 305
276 276 277 277 277 278 280 281 282 282 284 286 290 296 298 300 303 303 304 304 304 303
276 276 277 276 277 279 280 281 282 283 284 286 290 296 298 300 303 301 301 301 302 302
277 277 276 277 278 280 280 281 282 283 284 288 290 296 298 301 301 299 299 300 300 300
277 277 278 278 279 280 280 281 281 283 285 288 293 296 299 301 300 299 298 298 298 299

GFSNIL_sfc_thetae_258.txt.gz
Theta_e
284 284 284 284 284 284 285 286 288 288 289 290 292 294 296 297 301 304 307 312 316 315
283 283 283 284 284 284 285 285 286 287 287 288 290 291 293 294 296 299 302 303 313 313
282 283 283 283 283 283 284 285 285 285 286 287 288 289 291 292 294 296 300 301 307 312
281 282 282 283 283 283 284 284 284 284 284 285 286 287 289 290 291 292 294 298 299 307
281 281 281 282 282 282 282 283 283 283 283 284 285 286 287 287 289 290 291 294 298 296
281 281 281 281 281 282 282 282 282 283 282 283 284 285 286 287 287 289 290 292 295 298
279 280 281 281 281 282 281 282 281 282 283 283 283 284 285 286 287 288 290 291 293 297
280 280 280 280 281 281 281 281 282 282 282 283 283 284 285 285 286 287 288 290 293 297
279 279 279 280 280 280 280 281 281 281 281 282 283 285 286 286 285 287 288 289 292 297
278 279 279 280 280 280 280 281 280 280 280 280 282 284 286 287 286 286 288 289 291 295
278 278 279 279 279 280 280 280 280 280 281 280 280 284 285 286 286 286 288 289 291 294
278 278 278 278 279 280 280 280 280 281 281 280 280 283 285 286 285 286 287 290 291 295
278 277 277 278 279 280 280 280 281 281 281 281 281 284 285 286 286 285 286 289 293 297
278 278 279 280 280 280 280 280 280 280 281 282 283 283 286 287 286 286 287 288 294 299

GFSNIL_sfc_thetae_264.txt.gz
Theta_e
281 281 281 281 281 281 282 282 284 284 285 285 285 285 285 285 286 287 288 289 292 294
280 280 280 280 281 281 282 283 283 284 283 284 284 285 284 284 284 285 286 287 289 291
280 280 280 280 280 280 281 282 282 282 282 283 283 284 284 283 284 284 285 286 287 289
279 280 280 280 280 280 281 281 281 281 281 282 282 282 282 282 283 283 283 284 285 287
279 279 279 279 279 280 280 281 281 281 281 281 281 282 281 281 282 282 282 283 284 285
278 278 278 278 279 280 279 280 280 280 280 280 280 280 281 281 281 281 282 282 283 284
277 277 278 278 279 279 279 279 279 279 279 280 280 280 281 281 281 281 281 282 283 283
277 277 278 278 278 279 279 279 279 279 279 279 280 280 280 280 280 280 280 281 283 284
277 277 277 277 277 278 278 278 278 278 278 279 280 283 284 284 281 281 281 280 281 283
276 276 276 277 277 277 276 277 277 278 278 278 279 283 284 285 282 282 281 281 281 282
275 275 276 276 275 276 276 276 277 277 278 278 279 283 285 285 282 282 282 282 282 282
275 274 275 275 275 276 277 277 278 279 279 279 279 283 284 284 282 282 281 282 282 282
275 275 275 276 277 277 278 278 279 279 280 282 281 284 285 284 282 281 281 281 282 285
275 276 277 277 277 278 278 279 278 279 280 281 283 282 286 286 283 282 281 280 281 282